Station SJNP4 - 9755371 - San Juan, La Puntilla, San Juan Bay, PR Image indicating link to RSS feed of recent meteorological observations for station SJNP4


Conditions at SJNP4 as of
(5:00 pm AST)
2100 GMT on 06/08/2023:
     

Click on the graph icon in the table below to see a time series plot of the last five days of that observation.

5-day plot - Atmospheric Pressure Atmospheric Pressure (PRES):29.97 in
5-day plot - Pressure Tendency Pressure Tendency (PTDY):+0.00 in ( Steady )
5-day plot - Air Temperature Air Temperature (ATMP): 89.1 °F
5-day plot - Water Temperature Water Temperature (WTMP): 85.8 °F
NOS Water Level Observation Network Water Level
Previous observations
TIME
(AST)
5-day plot - Wind Direction
WDIR
 
5-day plot - Wind Speed
WSPD
kts
5-day plot - Wind Gust
GST
kts
5-day plot - Wave Height
WVHT
ft
5-day plot - Dominant Wave Period
DPD
sec
5-day plot - Average Wave Period
APD
sec
5-day plot - Mean Wave Direction
MWD
 
5-day plot - Atmospheric Pressure
PRES
in
5-day plot - Pressure Tendency
PTDY
in
5-day plot - Air Temperature
ATMP
°F
5-day plot - Water Temperature
WTMP
°F
5-day plot - Dew Point
DEWP
°F
5-day plot - Salinity
SAL
psu
5-day plot - Visibility
VIS
nmi
5-day plot - Tide (above MLLW)
TIDE
ft
2023-06-08 04:54 pm-------29.97- 88.7 85.8----
2023-06-08 04:48 pm-------29.97- 88.7 85.8----
2023-06-08 04:42 pm-------29.97- 88.3 85.8----
2023-06-08 04:36 pm-------29.97- 88.9 85.8----
2023-06-08 04:30 pm-------29.97- 88.7 85.8----
2023-06-08 04:24 pm-------29.97- 88.7 85.8----
2023-06-08 04:18 pm-------29.97- 88.9 85.8----
2023-06-08 04:12 pm-------29.97- 88.9 85.8----
2023-06-08 04:06 pm-------29.97- 88.9 85.8----
2023-06-08 04:00 pm-------29.97-0.01 88.7 85.8----
2023-06-08 03:54 pm-------29.97- 89.1 85.8----
2023-06-08 03:48 pm-------29.97- 88.5 85.8----
2023-06-08 03:42 pm-------29.97- 88.7 85.8----
2023-06-08 03:36 pm-------29.97- 89.1 85.8----
2023-06-08 03:30 pm-------29.97- 88.5 85.8----
2023-06-08 03:24 pm-------29.97- 88.9 85.8----
2023-06-08 03:18 pm--------- 88.9 85.8----
2023-06-08 03:12 pm--------- 88.5 85.8----
2023-06-08 03:06 pm--------- 88.9 85.8----
2023-06-08 03:00 pm-------29.97-0.03 88.7 85.8----
2023-06-08 02:54 pm-------29.97- 88.7 85.8----
2023-06-08 02:48 pm-------29.97- 88.3 85.8----
2023-06-08 02:42 pm-------29.97- 88.5 85.8----
2023-06-08 02:36 pm-------29.97- 88.7 85.8----
2023-06-08 02:30 pm-------29.97- 88.9 85.8----
2023-06-08 02:24 pm-------29.97- 88.9 85.8----
2023-06-08 02:18 pm-------29.97- 88.7 85.8----
2023-06-08 02:12 pm-------29.97- 88.7 85.8----
2023-06-08 02:06 pm-------29.97- 88.7 85.8----
2023-06-08 02:00 pm-------29.97-0.04 88.5 85.8----
2023-06-08 01:54 pm-------29.98- 88.7 85.8----
2023-06-08 01:48 pm-------29.98- 88.7 85.8----
2023-06-08 01:42 pm-------29.98- 89.1 85.8----
2023-06-08 01:36 pm-------29.98- 88.7 85.8----
2023-06-08 01:30 pm-------29.98- 89.1 85.8----
2023-06-08 01:24 pm-------29.98- 88.7 85.8----
2023-06-08 01:18 pm-------29.98- 88.9 85.6----
2023-06-08 01:12 pm-------29.98- 88.9 85.6----
2023-06-08 01:06 pm-------29.98- 88.7 85.6----
2023-06-08 01:00 pm-------29.98-0.04 88.9 85.6----
2023-06-08 12:54 pm-------29.98- 88.9 85.6----
2023-06-08 12:48 pm-------29.98- 88.7 85.6----
2023-06-08 12:42 pm-------29.98- 88.7 85.6----
2023-06-08 12:36 pm-------29.99- 88.5 85.6----
2023-06-08 12:30 pm-------29.99- 88.7 85.6----
2023-06-08 12:24 pm-------29.99- 88.5 85.5----
2023-06-08 12:18 pm-------30.00- 88.2 85.5----
2023-06-08 12:12 pm-------30.00- 88.7 85.5----
2023-06-08 12:06 pm-------30.00- 88.7 85.5----
2023-06-08 12:00 pm-------30.00-0.01 88.5 85.5----
2023-06-08 11:54 am-------30.00- 88.9 85.5----
2023-06-08 11:48 am-------30.00- 88.5 85.5----
2023-06-08 11:42 am-------30.01- 88.5 85.5----
2023-06-08 11:36 am-------30.01- 88.2 85.5----
2023-06-08 11:30 am-------30.01- 88.0 85.5----
2023-06-08 11:24 am-------30.01- 88.0 85.5----
2023-06-08 11:18 am-------30.01- 88.2 85.5----
2023-06-08 11:12 am-------30.01- 88.0 85.5----
2023-06-08 11:06 am-------30.01- 88.0 85.5----
2023-06-08 11:00 am-------30.01+0.00 88.0 85.5----
2023-06-08 10:54 am-------30.01- 87.8 85.5----
2023-06-08 10:48 am-------30.01- 88.2 85.5----
2023-06-08 10:42 am-------30.01- 88.2 85.5----
2023-06-08 10:36 am-------30.01- 87.6 85.5----
2023-06-08 10:30 am-------30.01- 87.8 85.5----
2023-06-08 10:24 am-------30.01- 87.6 85.5----
2023-06-08 10:18 am-------30.01-------
2023-06-08 10:12 am-------30.01-------
2023-06-08 10:06 am-------30.01-------
2023-06-08 10:00 am-------30.02+0.02 87.3 85.5----
2023-06-08 09:54 am-------30.02- 87.3 85.3----
2023-06-08 09:48 am-------30.02- 87.4 85.3----
2023-06-08 09:42 am-------30.02- 86.9 85.3----
2023-06-08 09:36 am-------30.02- 86.9 85.3----
2023-06-08 09:30 am-------30.02- 87.1 85.3----
2023-06-08 09:24 am-------30.02- 87.1 85.3----
2023-06-08 09:18 am-------30.02- 86.7 85.3----
2023-06-08 09:12 am-------30.02- 86.4 85.3----
2023-06-08 09:06 am-------30.01- 86.0 85.3----
2023-06-08 09:00 am-------30.01+0.02 86.0 85.3----
2023-06-08 08:54 am-------30.01- 85.8 85.3----
2023-06-08 08:48 am-------30.01- 85.6 85.3----
2023-06-08 08:42 am-------30.01- 85.6 85.3----
2023-06-08 08:36 am-------30.01- 85.3 85.3----
2023-06-08 08:30 am-------30.01- 85.1 85.3----
2023-06-08 08:24 am-------30.01- 84.7 85.3----
2023-06-08 08:18 am-------30.01- 84.7 85.3----
2023-06-08 08:12 am-------30.01- 84.7 85.3----
2023-06-08 08:06 am-------30.01- 84.6 85.3----
2023-06-08 08:00 am-------30.01+0.03 84.4 85.3----
2023-06-08 07:54 am-------30.01- 84.4 85.3----
2023-06-08 07:48 am-------30.01- 84.2 85.3----
2023-06-08 07:42 am-------30.01- 84.0 85.3----
2023-06-08 07:36 am-------30.01- 84.0 85.3----
2023-06-08 07:30 am-------30.01- 84.0 85.3----
2023-06-08 07:24 am-------30.01- 84.0 85.3----
2023-06-08 07:18 am--------- 83.8 85.3----
2023-06-08 07:12 am--------- 83.8 85.3----
2023-06-08 07:06 am--------- 83.5 85.3----
2023-06-08 07:00 am-------30.00+0.04 83.3 85.3----
2023-06-08 06:54 am-------30.00- 83.1 85.3----
2023-06-08 06:48 am-------30.00- 82.8 85.3----
2023-06-08 06:42 am-------30.00- 82.6 85.3----
2023-06-08 06:36 am-------30.00- 82.9 85.3----
2023-06-08 06:30 am-------29.99- 82.8 85.3----
2023-06-08 06:24 am-------29.99- 82.6 85.3----
2023-06-08 06:18 am-------29.99- 82.8 85.3----
2023-06-08 06:12 am-------29.99- 82.9 85.3----
2023-06-08 06:06 am-------29.99- 82.8 85.3----
2023-06-08 06:00 am-------29.99+0.03 82.8 85.3----
2023-06-08 05:54 am-------29.99- 82.4 85.3----
2023-06-08 05:48 am-------29.99- 82.4 85.3----
2023-06-08 05:42 am-------29.98- 82.4 85.3----
2023-06-08 05:36 am-------29.98- 82.4 85.3----
2023-06-08 05:30 am-------29.98- 82.4 85.3----
2023-06-08 05:24 am-------29.98- 82.6 85.3----
2023-06-08 05:18 am-------29.98- 82.6 85.3----
2023-06-08 05:12 am-------29.98- 82.6 85.3----
2023-06-08 05:06 am-------29.98- 82.8 85.3----
2023-06-08 05:00 am-------29.98+0.01 82.4 85.3----
2023-06-08 04:54 am-------29.98- 82.4 85.3----
2023-06-08 04:48 am-------29.98- 82.4 85.3----
2023-06-08 04:42 am-------29.98- 82.4 85.3----
2023-06-08 04:36 am-------29.98- 82.4 85.3----
2023-06-08 04:30 am-------29.97- 82.4 85.3----
2023-06-08 04:24 am-------29.97- 82.2 85.3----
2023-06-08 04:18 am-------29.97- 82.6 85.3----
2023-06-08 04:12 am-------29.97- 82.4 85.3----
2023-06-08 04:06 am-------29.97- 82.6 85.3----
2023-06-08 04:00 am-------29.96-0.01 82.8 85.3----
2023-06-08 03:54 am-------29.96- 82.8 85.3----
2023-06-08 03:48 am-------29.96- 82.6 85.3----
2023-06-08 03:42 am-------29.96- 82.6 85.3----
2023-06-08 03:36 am-------29.96- 82.8 85.3----
2023-06-08 03:30 am-------29.96- 82.6 85.3----
2023-06-08 03:24 am-------29.96- 82.8 85.3----
2023-06-08 03:18 am-------29.96- 82.9 85.3----
2023-06-08 03:12 am-------29.96- 82.9 85.3----
2023-06-08 03:06 am-------29.96- 82.9 85.3----
2023-06-08 03:00 am-------29.96-0.03 82.8 85.3----
2023-06-08 02:54 am-------29.96- 83.3 85.3----
2023-06-08 02:48 am-------29.96- 82.9 85.3----
2023-06-08 02:42 am-------29.96- 82.9 85.3----
2023-06-08 02:36 am-------29.96- 82.9 85.3----
2023-06-08 02:30 am-------29.96- 82.9 85.3----
2023-06-08 02:24 am-------29.96- 83.1 85.3----
2023-06-08 02:18 am-------29.96- 83.1 85.3----
2023-06-08 02:12 am-------29.96- 83.1 85.3----
2023-06-08 02:06 am-------29.97- 83.1 85.3----
2023-06-08 02:00 am-------29.97-0.03 83.3 85.3----
2023-06-08 01:54 am-------29.97- 82.9 85.5----
2023-06-08 01:48 am-------29.97- 82.8 85.5----
2023-06-08 01:42 am-------29.97- 82.9 85.5----
2023-06-08 01:36 am-------29.97- 83.3 85.5----
2023-06-08 01:30 am-------29.97- 83.3 85.5----
2023-06-08 01:24 am-------29.97- 83.1 85.5----
2023-06-08 01:18 am-------29.97- 83.1 85.5----
2023-06-08 01:12 am-------29.97- 83.1 85.5----
2023-06-08 01:06 am-------29.98- 83.5 85.5----
2023-06-08 01:00 am-------29.98-0.01 83.3 85.5----
2023-06-08 12:54 am-------29.98- 83.3 85.5----
2023-06-08 12:48 am-------29.98- 83.3 85.5----
2023-06-08 12:42 am-------29.98- 83.5 85.5----
2023-06-08 12:36 am-------29.98- 83.1 85.5----
2023-06-08 12:30 am-------29.98- 83.7 85.5----
2023-06-08 12:24 am-------29.98- 83.5 85.5----
2023-06-08 12:18 am-------29.98- 83.5 85.5----
2023-06-08 12:12 am-------29.98- 83.7 85.5----
2023-06-08 12:06 am-------29.98- 83.7 85.5----
2023-06-08 12:00 am-------29.99+0.01 83.8 85.5----
2023-06-07 11:54 pm-------29.99- 83.8 85.5----
2023-06-07 11:48 pm-------29.99- 83.8 85.5----
2023-06-07 11:42 pm-------29.99- 83.8 85.5----
2023-06-07 11:36 pm-------29.99- 83.8 85.5----
2023-06-07 11:30 pm-------29.99- 83.8 85.5----
2023-06-07 11:24 pm-------30.00- 84.0 85.5----
2023-06-07 11:18 pm-------30.00- 84.0 85.5----
2023-06-07 11:12 pm-------30.00- 84.2 85.5----
2023-06-07 11:06 pm-------30.00- 84.2 85.5----
2023-06-07 11:00 pm-------30.00+0.04 84.4 85.5----
2023-06-07 10:54 pm-------29.99- 84.0 85.5----
2023-06-07 10:48 pm-------29.99- 84.2 85.5----
2023-06-07 10:42 pm-------29.99- 84.0 85.5----
2023-06-07 10:36 pm-------29.99- 84.2 85.5----
2023-06-07 10:30 pm-------29.99- 84.0 85.5----
2023-06-07 10:24 pm-------29.99- 84.2 85.5----
2023-06-07 10:18 pm-------29.99- 84.2 85.5----
2023-06-07 10:12 pm-------29.99- 84.4 85.5----
2023-06-07 10:06 pm-------29.99- 84.0 85.5----
2023-06-07 10:00 pm-------29.99+0.05 84.2 85.5----
2023-06-07 09:54 pm-------29.98- 84.4 85.5----
2023-06-07 09:48 pm-------29.98- 84.4 85.5----
2023-06-07 09:42 pm-------29.98- 84.2 85.5----
2023-06-07 09:36 pm-------29.98- 84.2 85.5----
2023-06-07 09:30 pm-------29.97- 84.4 85.5----
2023-06-07 09:24 pm-------29.97- 84.4 85.5----
2023-06-07 09:18 pm-------29.97- 84.4 85.5----
2023-06-07 09:12 pm-------29.97- 84.4 85.5----
2023-06-07 09:06 pm-------29.97- 84.6 85.5----
2023-06-07 09:00 pm-------29.97+0.06 84.6 85.5----
2023-06-07 08:54 pm-------29.97- 84.6 85.5----
2023-06-07 08:48 pm-------29.97- 84.6 85.6----
2023-06-07 08:42 pm-------29.97- 84.4 85.6----
2023-06-07 08:36 pm-------29.97- 84.6 85.6----
2023-06-07 08:30 pm-------29.96- 84.6 85.6----
2023-06-07 08:24 pm-------29.96- 84.7 85.6----
2023-06-07 08:18 pm-------29.96- 84.7 85.6----
2023-06-07 08:12 pm-------29.96- 84.6 85.6----
2023-06-07 08:06 pm-------29.96- 84.9 85.6----
2023-06-07 08:00 pm-------29.96+0.05 85.1 85.6----
2023-06-07 07:54 pm-------29.96- 85.1 85.6----
2023-06-07 07:48 pm-------29.96- 85.1 85.6----
2023-06-07 07:42 pm-------29.95- 85.3 85.6----
2023-06-07 07:36 pm-------29.95- 85.1 85.6----
2023-06-07 07:30 pm-------29.94- 85.5 85.6----
2023-06-07 07:24 pm-------29.94- 85.8 85.6----
2023-06-07 07:18 pm-------29.94- 85.5 85.6----
2023-06-07 07:12 pm-------29.94- 85.8 85.6----
2023-06-07 07:06 pm-------29.93- 85.8 85.6----
2023-06-07 07:00 pm-------29.93+0.02 86.0 85.6----
2023-06-07 06:54 pm-------29.93- 86.0 85.6----
2023-06-07 06:48 pm-------29.93- 86.2 85.6----
2023-06-07 06:42 pm-------29.93- 86.4 85.6----
2023-06-07 06:36 pm-------29.93- 86.5 85.6----
2023-06-07 06:30 pm-------29.93- 86.5 85.6----
2023-06-07 06:24 pm-------29.93- 86.9 85.6----
2023-06-07 06:18 pm-------29.92- 86.9 85.6----
2023-06-07 06:12 pm-------29.92- 87.1 85.6----
2023-06-07 06:06 pm-------29.92- 87.1 85.6----
2023-06-07 06:00 pm-------29.91-0.01 87.1 85.6----
2023-06-07 05:54 pm-------29.91- 87.3 85.6----
2023-06-07 05:48 pm-------29.92- 87.3 85.6----
2023-06-07 05:42 pm-------29.91- 87.3 85.6----
2023-06-07 05:36 pm-------29.91- 87.6 85.6----
2023-06-07 05:30 pm-------29.91- 87.6 85.6----
2023-06-07 05:24 pm-------29.92- 87.8 85.6----
2023-06-07 05:18 pm-------29.92- 87.8 85.8----
2023-06-07 05:12 pm-------29.92- 88.0 85.8----
2023-06-07 05:06 pm-------29.91- 87.8 85.8----
2023-06-07 05:00 pm-------29.91-0.04 88.0 85.8----
2023-06-07 04:54 pm-------29.91- 88.0 85.8----